www.pogodaiklimat.ru

АРХИВ ПОГОДЫ в Чикаго

Время (UTC), дата Ветер
(напр.,м/с)
 
Видим.   Явления Облачность Т
(С)
Тd
(С)
f
(%)
Тe
(С)
Тes
(С)
Комфортность

P
(гПа)

Po
(гПа)
Тmin
(С)
Tmax
(С)
R
(мм)
SD
(см)
17:51 15.07 нст  16 км    8/5 1260 м
[средняя верхняя] 
+31.0  +20.0  52  +37  +44  очень
душно 
1014.0  990.3         
18:51 15.07 З   16 км    8/8 1290 м  +31.7  +20.0  50  +38  +40  очень
душно 
1013.4  989.9         
19:51 15.07 З  16 км    8/8 1290 м  +32.0  +20.0  49  +38  +41  очень
душно 
1013.1  989.3         
20:51 15.07 Ю  16 км  слабый дождь  8/8 1200 м
[средняя] 
+30.6  +21.1  57  +38  +39  очень
душно 
  989.3         
21:51 15.07 Ю  16 км    8/5 1200 м
[средняя] 
+30.6  +21.1  57  +38  +40  очень
душно 
  988.6         
22:51 15.07 В  16 км    8/5 1170 м
[средняя] 
+29.0  +22.0  66  +37  +38  очень
душно 
1012.3  988.6  +29.4  +32.8     
23:51 15.07 В  16 км    8/5 1140 м
[средняя верхняя] 
+29.0  +22.0  66  +37  +38  очень
душно 
1012.4  988.6         
00:51 16.07 В  16 км    8/5 1110 м
[верхняя] 
+28.0  +22.0  70  +36  +36  очень
душно 
1012.5  988.9         
01:51 16.07 В  16 км    8/5 1110 м
[верхняя] 
+28.3  +21.7  67  +36  +36  очень
душно 
  989.6         
02:51 16.07 ЮВ  16 км    5/2 1050 м
[верхняя] 
+27.2  +21.7  72  +35  +35  очень
душно 
1002.5  989.9         
03:51 16.07 штиль  16 км    5/2 1200 м
[верхняя] 
+26.7  +22.2  76  +35  +35  очень
душно 
1013.3  989.6         
04:51 16.07 З  16 км    5/2 1200 м
[верхняя] 
+27.0  +22.0  74  +35  +35  очень
душно 
1013.3  989.6  +26.7  +29.4     
05:51 16.07 ЮЗ  16 км    2/0 7500 м
[верхняя] 
+26.1  +22.2  79  +34  +34  очень
душно 
1013.1  989.6         
06:51 16.07 штиль  16 км    2/0 7500 м
[верхняя] 
+25.6  +22.2  82  +33  +33  очень
душно 
1012.6  988.9         
07:51 16.07 З   16 км    2/0 7500 м
[верхняя] 
+25.0  +21.7  82  +32  +32  очень
душно 
1012.5  988.9         
08:51 16.07 З  16 км    2/0 7500 м
[верхняя] 
+24.4  +21.7  85  +31  +31  очень
душно 
1012.5  988.9         
09:51 16.07 З  16 км    5/2 1170 м
[средняя верхняя] 
+24.4  +21.7  85  +31  +31  очень
душно 
1013.0  989.3         
10:51 16.07 штиль  16 км    8/2 1200 м
[средняя верхняя] 
+26.0  +22.0  79  +34  +34  очень
душно 
1012.8  989.3  +24.4  +26.7     
11:51 16.07 штиль  16 км    8/2 1200 м
[средняя верхняя] 
+27.0  +22.0  74  +35  +36  очень
душно 
1012.6  988.9         
12:51 16.07 З  16 км    8/2 1200 м
[средняя верхняя] 
+28.0  +22.0  70  +36  +39  очень
душно 
1012.9  989.3         
13:51 16.07 нст  16 км    8/2 1200 м
[средняя верхняя] 
+29.0  +22.0  66  +37  +41  очень
душно 
1013.2  989.6         
14:51 16.07 З  16 км    8/5 960 м
[средняя верхняя] 
+30.0  +20.6  57  +37  +40  очень
душно 
1013.2  989.6         
15:51 16.07 штиль  16 км    8/5 1200 м
[средняя верхняя] 
+31.1  +20.0  52  +38  +45  очень
душно 
1012.7  989.3         
16:51 16.07 нст  16 км    8/8 1260 м
[средняя верхняя] 
+32.2  +20.0  49  +39  +41  очень
душно 
1012.3  988.6  +26.1  +32.8     
17:51 16.07 С  7
{9} 
16 км  гроза  8/8 1350 м
[средняя верхняя] 
+31.7  +21.7  55  +40  +40  очень
душно 
1012.5  988.9         
18:02 16.07 СВ  16 км    8/5 1080 м
[средняя верхняя] 
+29.4  +19.4  55  +35  +36  очень
душно 
  988.9         
18:51 16.07 ЮВ  13 км  слабый дождь  8/8 1260 м
[средняя верхняя] 
            1012.6  988.9         
19:30 16.07 штиль  16 км  гроза  8/8 1350 м
[средняя] 
+29.4  +20.0  57  +36  +40  очень
душно 
  988.3         
19:51 16.07 СВ  16 км    8/8 1350 м
[средняя] 
+31.1  +20.6  54  +38  +41  очень
душно 
1011.9  988.3      2.0   
20:51 16.07 СВ  16 км    8/8 1080 м  +30.0  +21.0  59  +38  +39  очень
душно 
1012.1  988.3         
21:51 16.07 СЗ  16 км    8/8 1020 м  +31.1  +18.9  48  +36  +37  очень
душно 
1011.9  988.3         
22:51 16.07 С  16 км    5/2 1020 м
[верхняя] 
+30.0  +16.0  43  +33  +33  душно  1012.2  988.6  +26.1  +31.7     
23:51 16.07 СЗ  16 км    2/2 1350 м
[верхняя] 
+28.3  +14.4  43  +31  +31  душно  1012.7  989.3         
00:51 17.07 С  16 км    2/0 7500 м
[верхняя] 
+26.1  +13.3  45  +28  +28  жарко  1013.7  989.9         
01:51 17.07 С  16 км    2/0 7500 м
[верхняя] 
+25.0  +13.9  50  +27  +27  жарко  1014.7  990.9         
02:51 17.07 С  16 км    ясно  +24.4  +13.3  50  +27  +27  жарко  1014.9  991.2         
03:51 17.07 СЗ  16 км    ясно  +23.3  +13.3  53  +26  +26  жарко  1015.0  991.2         
04:51 17.07 СЗ  16 км    2/0 3300 м
[средняя] 
+22.8  +13.3  55  +26  +26  жарко  1014.9  991.2         
05:51 17.07 СЗ  16 км    2/0 3300 м
[средняя] 
+21.7  +13.9  61  +25  +25  комфорт  1015.1  991.2         
06:51 17.07 СЗ  16 км    2/0 3300 м
[средняя] 
+21.1  +14.4  66  +24  +24  комфорт  1015.2  991.2         
07:51 17.07 СЗ  16 км    ясно  +21.7  +14.4  63  +25  +25  комфорт  1015.2  991.6         
08:51 17.07 СЗ  16 км    2/0 7500 м
[верхняя] 
+21.7  +14.4  63  +25  +25  комфорт  1015.3  991.6         
09:51 17.07 СЗ  16 км    2/0 7500 м
[верхняя] 
+21.1  +14.4  66  +24  +24  комфорт  1016.0  992.2         
10:51 17.07 С  16 км    2/0 7500 м
[верхняя] 
+22.0  +15.0  64  +25  +26  комфорт  1016.7  992.9  +21.1       
11:51 17.07 С  16 км    2/0 7500 м
[верхняя] 
+23.3  +15.0  60  +27  +28  душно  1017.1  993.2         
12:51 17.07 С  16 км    5/0 7500 м
[верхняя] 
+25.0  +15.6  56  +28  +32  жарко  1017.2  993.2         
13:51 17.07 нст  16 км    5/2 1350 м
[верхняя] 
+26.0  +15.0  51  +29  +34  душно  1017.4  993.6         
14:51 17.07 СВ  16 км    8/2 1350 м
[верхняя] 
+26.7  +15.6  51  +30  +32  душно  1017.6  993.9         

 

Местоположение метеостанции Chicago-O`Hare International Airport: широта 41.9797 долгота -87.9044 высота над уровнем моря 203 м.

В архиве по умолчанию представлена погода в Чикаго за последние 1-2 суток. Обновление информации о фактической погоде в базе происходит ежечасно! Архивные данные за месяц целиком и за предыдущие месяцы Вы можете получить, выбрав интересующий диапазон дат из раскрывающегося списка и нажав кнопку "Ввод!".

Внимание! Архив погоды МЕТАР в базе сайта в настоящее время начинается c 1 января 2013 г. Нет смысла пытаться выбрать более раннюю дату.

Внимание! Время в таблицах - всемирное. Для получения местного времени необходимо прибавить поправку, которая в Чикаго равна -6 ч.

Ветер - указаны скорость ветра в м/с и направление, откуда дует ветер: С - северный, СВ - северо-восточный, В - восточный, ЮВ - юго-восточный, Ю - южный, ЮЗ - юго-западный, З - западный, СЗ - северо-западный.
Видимость - горизонтальная дальность видимости в метрах или километрах. При видимости от 1 до 10 км при отсутствии осадков обычно наблюдается дымка, при ухудшении видимости до 1 км и менее - туман. В сухую погоду видимость может ухудшаться дымом, пылью или мглою.
Атмосферные явления - указаны явления, наблюдавшиеся в указанный момент времени.
Облачность - указаны через наклонную черту верхняя и нижняя облачность в баллах и высота нижней границы облаков в метрах. Внимание: облачность, как и прочие метеорологические величины в США измеряются автоматическими метеостанциями. Указанные значения в баллах носят условный характер и показывают процент времени, в течение которого, в среднем, лазерный луч высотомера отражался от облаков обратно.
T - Температура воздуха - температура, измеренная на высоте 2 м над землей.
Td - Температура точки росы - температура, при понижении до которой содержащийся в воздухе водяной пар достигнет насыщения.
f - Относительная влажность воздуха - влажноcть воздуха, измеренная на высоте 2 м над землей.
Te - Эффективная температура - температура, которую ощущает одетый по сезону человек в тени. Характеристика душности погоды. При расчете учитывается влияние влажности воздуха и скорости ветра на теплоощущения человека.
Tes - Эффективная температура на солнце - температура, которую ощущает человек, с поправкой на солнечный нагрев. Характеристика знойности погоды. Зависит от высоты солнца над горизонтом, облачности и скорости ветра. Ночью, в пасмурную погоду, а также при ветре 12 м/с и более поправка равна нулю.
P - Атмосферное давление - приведенное к уровню моря атмосферное давление.
Po - Атмосферное давление - измеренное на уровне метеостанции атмосферное давление.
Tmin - Минимальная температура - минимум температуры воздуха на высоте 2 м над землей.
Tmax - Максимальная температура - максимум температуры воздуха на высоте 2 м над землей.
R - Количество осадков - Количество выпавших осадков за 3 или 6 часов, мм.
SD - Снежный покров - Высота снежного покрова, см.